Theta_e
337 338 338 337 330 320 309 326 326 327 323 322 323 321 316 318 319 319 323 324 329 329 330 328 329 330 329 331 331 331 329 328 326 323 321 320 320 318 318 316 317 317 320
338 338 337 337 324 318 309 319 330 326 321 321 318 316 316 326 324 326 323 322 324 328 330 329 328 329 329 331 331 330 327 325 322 319 313 316 318 319 318 319 316 319 318
338 338 338 335 324 315 310 313 328 322 315 313 316 313 319 326 323 326 323 324 323 323 326 325 327 328 328 329 329 328 325 323 320 315 310 312 314 318 317 316 317 318 318
337 338 337 333 324 314 311 318 319 321 322 318 321 320 324 322 322 325 326 325 327 324 325 324 325 327 326 325 327 327 325 323 319 314 312 309 311 317 316 315 316 318 319
338 338 336 332 324 313 312 317 320 324 318 320 315 317 324 323 322 328 326 326 326 326 322 324 325 328 327 325 327 325 325 323 318 312 307 305 306 314 313 312 317 313 314
337 337 334 331 325 312 314 319 322 321 327 324 317 323 325 320 325 329 326 323 322 326 326 324 324 325 326 325 326 324 324 322 319 317 312 306 311 315 315 313 313 312 312
336 336 332 328 326 315 318 322 325 328 327 326 324 319 324 324 325 329 326 320 318 323 322 321 323 325 326 325 325 323 322 322 321 319 313 306 314 315 314 313 312 313 312
335 335 332 328 327 320 316 324 328 326 327 325 325 321 325 320 322 327 326 321 318 321 323 323 321 325 326 326 325 323 322 322 321 320 317 312 313 314 313 313 312 309 309
334 335 334 330 328 326 319 326 323 322 322 322 325 323 318 314 317 328 326 323 319 318 319 320 321 324 326 326 324 322 322 322 321 320 318 314 315 313 313 313 308 304 305
333 335 334 332 329 330 322 324 327 325 318 323 326 325 320 315 322 329 325 323 320 318 317 317 319 322 324 325 323 322 321 320 320 319 317 315 314 313 311 312 306 305 303
332 334 335 333 330 331 322 319 326 322 316 316 323 321 316 316 323 324 324 323 321 319 318 317 318 320 322 322 322 321 321 320 319 319 318 316 314 313 309 309 304 303 302
335 333 333 334 331 330 324 319 326 322 319 312 315 314 317 316 321 323 325 322 321 320 318 317 318 320 321 320 321 321 320 319 319 318 318 316 314 313 308 309 305 304 302
332 336 333 334 332 329 325 322 324 324 319 313 315 316 322 316 319 321 323 322 321 320 318 316 316 320 320 319 320 320 320 319 318 318 317 316 313 314 312 310 306 303 301
331 333 333 333 332 329 326 322 321 323 322 314 315 317 318 315 318 320 322 321 320 319 318 318 316 316 318 319 319 318 318 318 317 317 317 315 314 314 312 311 310 304 301
328 328 331 329 330 330 329 322 322 323 321 318 314 313 315 314 314 321 323 322 319 319 318 318 317 317 316 316 317 318 318 317 317 316 316 314 312 315 310 311 312 306 301
328 329 330 330 329 331 331 329 320 324 322 322 321 314 312 313 313 317 320 321 319 319 319 319 319 318 317 316 315 317 317 317 317 316 315 313 313 313 312 314 313 309 303
330 331 332 331 329 329 332 332 325 319 323 322 323 322 313 313 314 318 318 321 322 319 318 319 318 317 314 315 316 316 315 315 315 316 315 313 312 311 308 311 315 311 306
330 331 330 331 325 326 329 332 331 324 319 324 324 322 322 315 317 320 321 319 321 320 318 317 316 315 315 315 316 317 316 315 314 313 312 312 311 310 307 304 306 308 308
329 330 329 331 331 325 331 332 331 330 319 324 324 322 323 319 317 318 321 320 319 319 318 317 317 315 316 315 316 315 314 313 313 313 312 310 309 309 308 303 302 301 300
329 328 330 331 332 333 332 332 331 329 323 324 325 323 323 322 321 319 321 320 320 320 319 318 318 316 315 314 314 313 313 312 312 312 312 310 308 307 307 303 301 300 299
328 327 326 328 330 331 333 333 331 329 327 327 326 325 324 324 322 322 321 320 321 320 319 318 317 316 314 315 315 314 313 311 311 310 311 310 308 306 305 303 301 299 299
327 325 324 326 328 330 330 332 331 330 329 328 328 326 325 325 323 324 323 319 321 319 319 318 317 317 315 315 314 313 312 310 309 308 309 309 309 307 305 303 302 300 299
320 326 328 326 325 326 329 330 331 329 330 329 328 327 327 327 325 325 324 321 319 320 320 319 318 318 318 316 315 314 310 309 308 309 308 308 308 308 307 305 304 302 300
310 318 324 326 326 326 326 328 329 330 330 330 329 328 327 326 326 326 326 324 319 320 319 319 319 319 318 318 317 315 313 310 308 308 310 310 309 309 308 307 306 304 302
309 310 314 324 326 327 325 326 328 329 330 329 329 328 327 326 326 326 326 325 323 319 320 319 320 320 319 319 319 319 317 314 312 310 309 310 311 312 311 310 309 307 305
307 308 310 313 320 325 325 325 325 325 327 328 328 328 327 327 326 325 325 325 323 321 320 321 321 319 319 320 319 319 319 317 316 314 313 314 313 314 313 312 312 311 309
Wind_Speed
26 28 25 20 16 16 21 23 20 20 21 21 19 17 16 15 12 12 16 15 15 16 15 16 15 16 17 21 23 23 20 20 20 16 16 18 20 21 21 21 20 22 23
31 30 25 21 17 17 20 25 22 22 22 21 18 17 16 17 12 16 14 12 13 16 16 17 16 16 19 22 22 20 16 16 15 15 16 20 20 21 21 20 21 21 19
31 31 26 20 18 17 19 22 23 21 19 17 16 15 17 16 16 16 12 13 10 13 18 17 17 17 17 17 17 16 15 14 14 15 16 18 19 20 20 19 20 19 18
32 32 26 20 20 17 19 23 22 20 19 17 16 16 18 18 18 18 14 12 14 13 22 18 18 17 15 15 15 14 14 13 14 14 15 15 18 19 18 18 18 18 20
33 31 26 21 20 17 19 22 22 20 18 15 12 18 20 16 17 16 14 11 14 15 20 20 19 18 15 15 15 14 11 10 13 16 16 14 15 16 16 17 20 16 17
33 30 26 21 20 18 20 21 21 20 18 14 14 20 19 18 16 16 14 9 14 16 17 20 19 17 15 15 15 12 9 8 13 14 14 15 18 16 16 16 16 15 15
32 29 25 21 21 18 20 21 20 20 18 14 14 17 18 17 16 16 14 11 12 16 17 18 18 17 16 14 14 12 8 9 11 13 13 15 16 16 15 16 14 17 17
30 29 25 21 21 18 19 20 20 20 21 19 15 15 17 17 17 14 15 12 12 16 16 16 17 17 16 14 14 11 10 7 7 9 12 13 15 14 15 14 14 13 13
29 29 25 22 21 19 18 21 20 20 17 21 16 14 15 15 17 15 14 11 12 14 14 15 15 16 15 15 12 9 10 6 3 7 9 12 13 12 14 13 12 11 12
30 29 26 24 22 20 18 20 20 19 17 21 19 16 14 16 19 16 13 13 12 12 12 13 14 14 14 12 10 9 7 5 3 2 6 9 11 10 11 12 10 11 11
30 30 28 26 24 20 18 20 21 16 13 17 20 17 15 19 18 17 15 14 13 12 12 12 13 14 13 11 10 10 9 6 3 1 3 4 9 9 9 9 8 9 10
32 31 29 27 25 23 21 21 24 19 15 15 19 16 17 19 19 18 16 15 13 12 11 12 12 14 13 12 12 10 9 8 6 4 1 4 8 7 6 8 7 8 9
30 31 30 29 25 25 25 23 24 20 16 16 16 18 18 18 20 19 17 15 15 14 13 12 13 14 13 12 13 12 11 9 7 7 5 6 5 7 4 6 5 6 8
28 28 30 29 27 27 25 25 22 21 20 18 17 18 18 18 19 19 16 15 16 15 14 13 12 13 13 13 13 11 11 11 10 8 7 7 8 8 6 6 3 4 6
26 28 29 29 30 30 26 25 25 23 22 18 18 18 18 18 19 18 17 16 17 17 16 14 13 13 13 13 13 13 15 13 12 11 9 10 5 9 5 6 5 2 3
27 26 26 28 31 31 29 26 26 26 23 20 18 18 19 18 19 19 17 15 16 18 18 17 15 14 14 15 15 15 16 16 15 14 14 11 8 9 7 10 7 3 1
30 26 26 27 32 34 32 29 27 27 25 22 23 18 18 19 19 17 15 17 17 18 19 19 18 16 14 17 16 16 16 17 18 17 18 16 13 11 11 11 11 8 6
27 30 29 29 31 34 34 30 28 28 26 26 24 22 19 20 20 19 16 15 18 19 19 19 19 19 16 15 17 17 17 17 19 19 19 19 17 16 15 15 11 11 10
28 28 32 33 33 35 37 32 29 28 28 28 27 25 24 22 21 21 18 17 19 21 20 20 20 19 19 18 18 19 19 20 20 21 21 21 20 19 18 18 17 15 15
26 25 30 33 36 36 38 35 31 29 29 26 31 26 26 26 25 24 22 20 20 23 23 22 22 19 19 18 19 20 21 22 23 24 23 23 22 22 22 22 21 20 19
25 27 26 32 36 38 41 39 37 36 34 31 32 30 27 30 28 26 24 23 24 26 25 24 23 23 20 21 20 22 24 25 26 26 26 26 25 24 24 25 24 23 22
26 27 28 30 33 37 38 40 39 36 37 31 29 32 32 33 29 29 25 27 27 28 28 27 27 25 23 23 24 23 17 24 29 28 28 28 27 27 27 26 27 26 26
7 19 28 33 33 36 38 39 36 40 39 37 35 32 34 35 33 30 29 29 30 31 31 32 31 30 28 25 28 23 10 12 13 18 27 31 30 29 29 28 29 29 29
8 9 17 24 32 35 37 39 41 44 41 39 36 33 31 35 33 35 34 32 33 34 34 34 34 33 33 33 30 33 32 25 9 10 13 17 26 31 31 31 31 31 32
12 9 11 17 21 27 35 36 40 41 42 40 40 37 35 33 34 36 36 35 35 37 39 37 37 37 37 37 38 36 35 36 37 33 32 26 25 24 27 29 32 33 33
15 12 10 11 15 20 26 32 34 36 39 42 42 41 39 38 35 39 38 38 37 39 42 43 42 39 40 39 40 40 41 40 38 39 41 43 38 37 34 30 33 33 34
Wind_Direction
169 167 176 175 172 163 158 148 147 146 147 151 152 151 150 149 147 150 134 131 122 121 121 125 131 122 122 122 122 119 113 111 104 98 92 88 84 80 80 79 80 75 77
163 168 177 176 173 164 160 155 146 144 151 156 155 155 148 128 138 127 115 116 127 129 126 129 133 125 126 127 128 120 109 99 92 92 91 87 85 83 78 77 74 76 75
166 167 174 177 174 165 164 152 147 142 143 146 151 155 143 135 136 127 119 125 127 139 133 138 137 130 136 133 132 116 108 96 95 91 88 88 84 85 84 82 82 77 76
169 169 172 179 168 166 160 152 149 147 142 143 143 140 138 130 124 135 135 131 128 134 137 141 138 138 143 141 132 117 101 93 92 92 88 85 85 87 85 86 86 84 83
170 170 171 177 166 164 161 156 150 147 140 132 125 139 125 130 144 141 140 131 127 132 143 142 142 142 141 135 129 115 110 96 106 95 87 84 90 92 90 90 90 79 79
172 172 172 180 168 164 160 158 152 145 139 140 125 135 138 143 144 148 144 132 130 126 137 143 144 147 148 138 135 128 113 100 108 94 82 78 85 92 90 86 88 81 80
175 173 177 179 171 164 159 157 155 143 151 155 143 140 139 153 155 152 148 140 135 132 141 152 150 150 155 147 141 133 111 116 106 96 82 78 93 93 89 86 84 81 76
179 176 179 175 174 165 164 158 162 156 159 162 157 151 155 159 163 160 154 143 143 143 144 148 151 155 159 154 143 133 121 120 108 99 92 81 93 92 93 90 82 74 80
183 180 179 175 175 169 165 162 165 163 156 157 159 167 166 163 168 164 159 154 153 146 154 153 153 157 162 158 145 131 140 130 80 85 87 90 99 95 97 93 78 72 70
185 186 180 177 176 174 169 165 166 166 159 162 168 174 175 162 166 167 166 168 160 154 157 157 159 163 166 158 149 158 168 154 89 50 65 96 107 103 98 95 75 70 64
187 188 185 183 182 181 176 171 174 178 167 170 175 176 175 172 171 174 172 176 165 164 162 164 168 170 168 163 174 183 184 189 176 155 2 93 113 116 100 95 73 67 63
187 191 190 190 187 184 181 177 180 178 183 181 181 181 171 173 179 180 177 176 171 171 173 171 174 179 181 177 178 188 197 200 201 205 231 134 129 127 102 101 79 77 62
193 191 195 192 193 190 189 185 186 181 186 182 182 179 179 179 183 188 188 179 182 184 184 182 180 182 186 190 187 196 200 213 216 216 226 183 149 147 132 118 92 79 62
198 199 199 201 200 196 198 193 194 191 190 187 187 186 186 187 190 193 194 186 193 193 194 193 193 192 194 194 195 193 192 209 214 221 240 216 158 172 165 139 137 92 63
205 204 202 206 205 201 204 203 199 198 196 193 197 198 199 198 198 199 200 200 202 202 203 206 207 208 209 206 205 208 211 214 213 226 234 221 193 189 192 175 173 132 54
214 213 211 213 210 208 208 212 209 206 205 198 209 210 206 207 204 203 210 207 207 207 210 215 223 222 229 223 216 216 223 227 231 232 246 261 232 215 194 198 195 220 307
220 221 220 220 215 211 213 212 215 219 211 207 211 214 214 209 211 211 211 212 214 213 214 217 225 232 235 226 226 225 226 232 236 242 248 256 253 243 230 225 207 217 257
234 231 234 223 215 210 215 218 220 222 221 214 214 224 225 218 212 215 221 221 218 217 215 223 229 232 236 235 234 236 238 237 240 242 246 251 254 249 243 242 230 236 248
246 240 231 225 225 215 215 221 223 225 223 221 216 223 227 226 223 223 223 226 223 222 221 220 221 228 236 239 237 240 244 244 243 244 247 249 250 248 246 247 251 253 261
248 247 239 236 231 226 222 221 223 222 219 226 222 222 228 231 231 230 226 227 223 226 228 223 223 236 232 238 241 244 246 247 245 245 245 247 248 248 248 248 251 256 260
248 244 243 241 239 235 223 221 220 220 218 223 225 229 230 232 232 235 231 228 225 228 227 223 226 232 231 231 240 247 248 250 249 247 246 246 247 248 248 249 252 254 256
256 252 249 248 245 246 241 233 227 225 224 230 232 230 231 236 241 233 234 231 227 229 230 227 227 233 237 237 239 246 260 259 256 252 251 250 249 249 249 250 251 252 253
270 261 262 254 255 250 249 241 234 231 225 225 223 230 232 236 242 241 239 239 232 232 233 233 232 240 247 247 245 239 246 251 272 265 255 253 252 251 254 252 252 252 252
342 288 255 254 252 252 252 246 239 236 230 231 233 233 240 238 239 241 243 243 238 233 238 239 240 244 249 249 252 249 244 253 276 289 281 267 258 255 256 256 256 254 253
337 329 309 264 252 252 251 252 246 241 242 244 237 234 237 240 242 244 244 244 243 238 238 242 242 244 250 254 253 259 256 253 254 259 275 272 269 271 269 265 263 259 256
307 309 309 294 263 248 250 251 251 254 252 246 244 244 239 240 242 244 245 245 246 244 241 243 247 248 249 253 259 259 258 258 258 259 261 270 274 276 276 273 268 267 263